This is the latest recevied weather packets stored in our database for station/object VE9LJW. If no packets are shown the sender has not sent any weather packets the latest 10 day(s).
| Time | Temp. | Humidity | Pressure | Rain* | Wind** | Luminosity | Snow |
|---|---|---|---|---|---|---|---|
| 1777550073 | 10° C | 88% | 1013.1 hPa | 0 mm | - | 149 W/m² | - |
| 1777549770 | 9.44° C | 87% | 1013 hPa | 0 mm | - | 148 W/m² | - |
| 1777549465 | 9.44° C | 87% | 1012.8 hPa | 0 mm | - | 132 W/m² | - |
| 1777549162 | 9.44° C | 88% | 1012.9 hPa | 0 mm | - | 133 W/m² | - |
| 1777548858 | 9.44° C | 89% | 1012.8 hPa | 0 mm | - | 110 W/m² | - |
| 1777548555 | 9.44° C | 88% | 1012.9 hPa | 0 mm | - | 110 W/m² | - |
| 1777548252 | 9.44° C | 89% | 1012.8 hPa | 0 mm | - | 116 W/m² | - |
| 1777547949 | 9.44° C | 89% | 1012.7 hPa | 0 mm | - | 117 W/m² | - |
| 1777547645 | 8.89° C | 90% | 1012.7 hPa | 0 mm | - | 110 W/m² | - |
| 1777547341 | 8.89° C | 90% | 1012.9 hPa | 0 mm | - | 93 W/m² | - |
| 1777547039 | 8.89° C | 91% | 1012.7 hPa | 0 mm | - | 78 W/m² | - |
| 1777546736 | 8.89° C | 91% | 1012.8 hPa | 0 mm | - | 65 W/m² | - |
| 1777546433 | 8.89° C | 91% | 1012.8 hPa | 0 mm | - | 57 W/m² | - |
| 1777546130 | 8.89° C | 91% | 1012.9 hPa | 0 mm | - | 54 W/m² | - |
| 1777545825 | 8.89° C | 92% | 1012.7 hPa | 0 mm | - | 53 W/m² | - |
| 1777545523 | 8.89° C | 92% | 1012.8 hPa | 0 mm | - | 45 W/m² | - |
| 1777545219 | 8.89° C | 92% | 1012.5 hPa | 0 mm | - | 39 W/m² | - |
| 1777544918 | 8.33° C | 92% | 1012.7 hPa | 0 mm | - | 34 W/m² | - |
| 1777544614 | 8.89° C | 92% | 1012.7 hPa | 0 mm | - | 29 W/m² | - |
| 1777544310 | 8.33° C | 92% | 1012.7 hPa | 0 mm | - | 24 W/m² | - |
| 1777544007 | 8.33° C | 92% | 1012.6 hPa | 0 mm | - | 22 W/m² | - |
| 1777543704 | 8.33° C | 93% | 1012.8 hPa | 0 mm | - | 20 W/m² | - |
| 1777543400 | 8.33° C | 92% | 1012.7 hPa | 0 mm | - | 18 W/m² | - |
| 1777543095 | 8.33° C | 92% | 1012.8 hPa | 0 mm | - | 15 W/m² | - |
| 1777542792 | 8.33° C | 92% | 1012.9 hPa | 0 mm | - | 12 W/m² | - |
* Rain latest hour (hover to see other rain measurements)
** Current wind speed in m/s (hover to see current wind gust speed)